| time (UTC) | temp F | wind direction | speed MPH | gust MPH | rain 1hr in | rain 24hr in | rain mn in | humidity % | barometer mb |
| 20260508103223 | 54 | 10 | 0.0 | 0.0 | 0.00 | 2.24 | 0.00 | 91 | 1015.1 |
| 20260508102223 | 54 | 41 | 0.0 | 0.0 | 0.00 | 2.24 | 0.00 | 92 | 1014.6 |
| 20260508101223 | 54 | 347 | 0.0 | 0.0 | 0.00 | 2.25 | 0.00 | 93 | 1014.7 |
| 20260508100223 | 54 | 355 | 0.0 | 0.0 | 0.00 | 2.25 | 0.00 | 93 | 1014.6 |
| 20260508092223 | 55 | 336 | 0.0 | 0.0 | 0.00 | 2.32 | 0.00 | 91 | 1014.5 |
| 20260508090223 | 56 | 350 | 0.0 | 0.0 | 0.00 | 2.39 | 0.00 | 91 | 1014.4 |
| 20260508085223 | 56 | 350 | 0.0 | 1.0 | 0.00 | 2.39 | 0.00 | 90 | 1014.2 |
| 20260508084223 | 56 | 302 | 1.0 | 2.0 | 0.00 | 2.39 | 0.00 | 90 | 1014.1 |
| 20260508083223 | 56 | 318 | 2.0 | 2.0 | 0.00 | 2.39 | 0.00 | 90 | 1014.0 |
| 20260508081223 | 56 | 331 | 0.0 | 2.0 | 0.00 | 2.40 | 0.00 | 91 | 1013.8 |
| 20260508080223 | 56 | 331 | 1.0 | 2.0 | 0.00 | 2.40 | 0.00 | 91 | 1013.6 |
| 20260508075223 | 56 | 310 | 0.0 | 3.0 | 0.00 | 2.40 | 0.00 | 91 | 1013.6 |
| 20260508074222 | 56 | 345 | 1.0 | 2.0 | 0.00 | 2.40 | 0.00 | 90 | 1013.6 |
| 20260508072222 | 57 | 319 | 0.0 | 2.0 | 0.00 | 2.40 | 0.00 | 89 | 1013.7 |
| 20260508070222 | 57 | 328 | 1.0 | 2.0 | 0.00 | 2.43 | 0.00 | 89 | 1014.1 |
| 20260508064222 | 58 | 313 | 0.0 | 0.0 | 0.00 | 2.47 | 0.00 | 89 | 1014.4 |
| 20260508063222 | 58 | 331 | 0.0 | 0.0 | 0.00 | 2.48 | 0.00 | 89 | 1014.3 |
| 20260508062222 | 58 | 325 | 0.0 | 0.0 | 0.00 | 2.49 | 0.00 | 89 | 1014.4 |
| 20260508061222 | 58 | 266 | 0.0 | 0.0 | 0.00 | 2.49 | 0.00 | 89 | 1014.2 |
| 20260508060222 | 59 | 306 | 0.0 | 1.0 | 0.00 | 2.50 | 0.00 | 88 | 1014.5 |
| 20260508055222 | 59 | 306 | 0.0 | 1.0 | 0.00 | 2.51 | 0.00 | 88 | 1014.7 |
| 20260508054222 | 59 | 300 | 2.0 | 2.0 | 0.00 | 2.53 | 0.00 | 87 | 1014.5 |
| 20260508053221 | 59 | 286 | 0.0 | 3.0 | 0.00 | 2.55 | 0.00 | 87 | 1014.5 |
| 20260508052222 | 59 | 287 | 1.0 | 3.0 | 0.00 | 2.59 | 0.00 | 87 | 1014.6 |
| 20260508051221 | 59 | 294 | 1.0 | 2.0 | 0.00 | 2.61 | 0.00 | 87 | 1014.4 |
| 20260508050221 | 60 | 319 | 1.0 | 3.0 | 0.00 | 2.63 | 0.00 | 87 | 1014.8 |
| 20260508045221 | 60 | 318 | 1.0 | 3.0 | 0.00 | 2.65 | 0.00 | 86 | 1014.7 |
| 20260508043221 | 61 | 300 | 2.0 | 3.0 | 0.00 | 2.67 | 0.00 | 85 | 1014.5 |
| 20260508042221 | 61 | 306 | 3.0 | 4.0 | 0.00 | 2.67 | 0.00 | 85 | 1014.5 |
| 20260508041221 | 61 | 326 | 2.0 | 4.0 | 0.00 | 2.67 | 0.00 | 85 | 1014.4 |
| 20260508040221 | 61 | 335 | 3.0 | 4.0 | 0.00 | 2.68 | 0.00 | 84 | 1014.4 |
| 20260508035221 | 62 | 296 | 2.0 | 4.0 | 0.00 | 2.68 | 2.68 | 83 | 1014.3 |
| 20260508034221 | 62 | 340 | 3.0 | 5.0 | 0.00 | 2.68 | 2.68 | 83 | 1014.3 |
| 20260508033221 | 62 | 325 | 3.0 | 6.0 | 0.00 | 2.68 | 2.68 | 82 | 1014.3 |
| 20260508032221 | 62 | 292 | 2.0 | 6.0 | 0.00 | 2.70 | 2.68 | 82 | 1014.1 |
| 20260508031221 | 62 | 323 | 4.0 | 4.0 | 0.00 | 2.72 | 2.68 | 82 | 1014.0 |
| 20260508030221 | 63 | 347 | 3.0 | 4.0 | 0.00 | 2.72 | 2.68 | 82 | 1013.9 |
| 20260508025221 | 63 | 306 | 3.0 | 5.0 | 0.00 | 2.72 | 2.68 | 82 | 1013.8 |
| 20260508024221 | 63 | 342 | 4.0 | 5.0 | 0.00 | 2.80 | 2.68 | 82 | 1013.6 |
| 20260508023220 | 63 | 295 | 2.0 | 4.0 | 0.00 | 2.80 | 2.68 | 81 | 1013.7 |
| 20260508022220 | 63 | 344 | 3.0 | 4.0 | 0.00 | 2.80 | 2.68 | 80 | 1013.7 |
| 20260508020220 | 64 | 334 | 3.0 | 4.0 | 0.00 | 2.80 | 2.68 | 79 | 1013.7 |
| 20260508015220 | 64 | 333 | 3.0 | 5.0 | 0.00 | 2.80 | 2.68 | 79 | 1013.6 |
| 20260508013222 | 65 | 330 | 4.0 | 5.0 | 0.00 | 2.80 | 2.68 | 78 | 1013.4 |
| 20260508011220 | 66 | 292 | 4.0 | 10.0 | 0.00 | 2.80 | 2.68 | 77 | 1013.3 |
| 20260508005220 | 67 | 304 | 4.0 | 8.0 | 0.00 | 2.80 | 2.68 | 79 | 1012.9 |
| 20260508004220 | 67 | 313 | 3.0 | 7.0 | 0.00 | 2.80 | 2.68 | 80 | 1012.9 |
| 20260508003220 | 67 | 300 | 6.0 | 8.0 | 0.00 | 2.80 | 2.68 | 80 | 1012.8 |
| 20260508002220 | 68 | 348 | 5.0 | 8.0 | 0.00 | 2.80 | 2.68 | 80 | 1012.7 |
| 20260508001220 | 68 | 337 | 1.0 | 4.0 | 0.00 | 2.80 | 2.68 | 79 | 1012.8 |
| 20260508000219 | 69 | 355 | 4.0 | 8.0 | 0.00 | 2.80 | 2.68 | 79 | 1012.4 |
| 20260507235219 | 70 | 340 | 3.0 | 4.0 | 0.00 | 2.80 | 2.68 | 78 | 1012.4 |
| 20260507234219 | 70 | 252 | 3.0 | 4.0 | 0.00 | 2.80 | 2.68 | 79 | 1012.5 |
| 20260507233219 | 70 | 333 | 3.0 | 5.0 | 0.00 | 2.80 | 2.68 | 77 | 1012.3 |
| 20260507232219 | 71 | 313 | 4.0 | 6.0 | 0.00 | 2.80 | 2.68 | 77 | 1012.2 |
| 20260507231219 | 71 | 322 | 4.0 | 10.0 | 0.00 | 2.80 | 2.68 | 77 | 1012.1 |
| 20260507230219 | 71 | 318 | 4.0 | 8.0 | 0.00 | 2.80 | 2.68 | 76 | 1012.1 |
| 20260507225219 | 72 | 309 | 4.0 | 7.0 | 0.00 | 2.80 | 2.68 | 76 | 1012.1 |
| 20260507224219 | 73 | 327 | 3.0 | 8.0 | 0.00 | 2.80 | 2.68 | 75 | 1011.7 |
| 20260507223219 | 72 | 302 | 6.0 | 10.0 | 0.00 | 2.80 | 2.68 | 74 | 1011.7 |
| 20260507221219 | 74 | 329 | 9.0 | 9.0 | 0.00 | 2.80 | 2.68 | 74 | 1011.6 |
| 20260507215218 | 72 | 286 | 5.0 | 10.0 | 0.00 | 2.80 | 2.68 | 76 | 1011.4 |
| 20260507214219 | 73 | 302 | 10.0 | 10.0 | 0.00 | 2.80 | 2.68 | 75 | 1011.6 |
| 20260507213218 | 72 | 300 | 3.0 | 9.0 | 0.00 | 2.80 | 2.68 | 77 | 1011.6 |
| 20260507212218 | 73 | 300 | 8.0 | 12.0 | 0.00 | 2.80 | 2.68 | 76 | 1011.7 |
| 20260507211218 | 73 | 287 | 4.0 | 12.0 | 0.00 | 2.80 | 2.68 | 75 | 1011.4 |
| 20260507210218 | 73 | 319 | 5.0 | 9.0 | 0.00 | 2.80 | 2.68 | 76 | 1011.5 |
| 20260507205219 | 72 | 336 | 8.0 | 10.0 | 0.00 | 2.80 | 2.68 | 78 | 1011.3 |
| 20260507204218 | 72 | 350 | 4.0 | 11.0 | 0.00 | 2.80 | 2.68 | 78 | 1011.4 |
| 20260507203218 | 72 | 301 | 7.0 | 12.0 | 0.00 | 2.80 | 2.68 | 78 | 1011.3 |
| 20260507202219 | 72 | 328 | 5.0 | 11.0 | 0.00 | 2.80 | 2.68 | 79 | 1011.3 |
| 20260507201218 | 73 | 325 | 8.0 | 13.0 | 0.00 | 2.80 | 2.68 | 79 | 1011.4 |
| 20260507200218 | 72 | 315 | 7.0 | 11.0 | 0.00 | 2.80 | 2.68 | 78 | 1011.4 |
| 20260507195218 | 72 | 307 | 4.0 | 14.0 | 0.00 | 2.80 | 2.68 | 79 | 1011.5 |
| 20260507194218 | 72 | 355 | 5.0 | 11.0 | 0.00 | 2.80 | 2.68 | 79 | 1011.6 |
| 20260507193218 | 72 | 331 | 10.0 | 14.0 | 0.00 | 2.80 | 2.68 | 78 | 1011.7 |
| 20260507192218 | 72 | 300 | 8.0 | 11.0 | 0.00 | 2.80 | 2.68 | 78 | 1011.6 |
| 20260507191220 | 73 | 319 | 8.0 | 12.0 | 0.00 | 2.80 | 2.68 | 78 | 1011.4 |
| 20260507190217 | 73 | 346 | 5.0 | 10.0 | 0.00 | 2.80 | 2.68 | 81 | 1011.5 |
| 20260507184217 | 72 | 315 | 8.0 | 10.0 | 0.00 | 2.80 | 2.68 | 81 | 1011.6 |
| 20260507183218 | 72 | 288 | 4.0 | 7.0 | 0.00 | 2.80 | 2.68 | 82 | 1011.4 |
| 20260507182217 | 72 | 298 | 7.0 | 9.0 | 0.00 | 2.80 | 2.68 | 81 | 1011.5 |
| 20260507180217 | 73 | 262 | 5.0 | 10.0 | 0.00 | 2.80 | 2.68 | 81 | 1011.3 |
| 20260507175217 | 73 | 273 | 4.0 | 10.0 | 0.00 | 2.80 | 2.68 | 80 | 1011.6 |
| 20260507174217 | 72 | 317 | 3.0 | 10.0 | 0.00 | 2.80 | 2.68 | 81 | 1011.4 |
| 20260507173217 | 73 | 290 | 4.0 | 10.0 | 0.00 | 2.80 | 2.68 | 83 | 1011.6 |
| 20260507172217 | 72 | 325 | 4.0 | 9.0 | 0.00 | 2.80 | 2.68 | 82 | 1011.7 |
| 20260507171217 | 72 | 279 | 4.0 | 9.0 | 0.00 | 2.80 | 2.68 | 86 | 1011.8 |
| 20260507170217 | 72 | 335 | 3.0 | 9.0 | 0.00 | 2.80 | 2.68 | 86 | 1011.9 |
| 20260507165217 | 71 | 291 | 4.0 | 6.0 | 0.00 | 2.80 | 2.68 | 85 | 1011.7 |
| 20260507164217 | 70 | 271 | 8.0 | 9.0 | 0.00 | 2.80 | 2.68 | 86 | 1011.7 |
| 20260507162217 | 70 | 274 | 4.0 | 6.0 | 0.05 | 2.80 | 2.68 | 89 | 1011.7 |
| 20260507161216 | 69 | 338 | 3.0 | 9.0 | 0.17 | 2.80 | 2.68 | 90 | 1012.0 |
| 20260507160216 | 68 | 250 | 4.0 | 4.0 | 0.17 | 2.80 | 2.68 | 94 | 1011.9 |
| 20260507155216 | 67 | 253 | 3.0 | 4.0 | 0.17 | 2.80 | 2.68 | 93 | 1011.6 |
| 20260507154216 | 67 | 229 | 3.0 | 3.0 | 0.17 | 2.80 | 2.68 | 95 | 1011.5 |
| 20260507151216 | 67 | 22 | 4.0 | 4.0 | 0.01 | 2.63 | 2.51 | 93 | 1011.3 |
| 20260507150216 | 67 | 5 | 3.0 | 4.0 | 0.01 | 2.63 | 2.51 | 94 | 1011.0 |
| 20260507145216 | 66 | 5 | 2.0 | 6.0 | 0.01 | 2.63 | 2.51 | 94 | 1011.1 |
| 20260507144216 | 66 | 28 | 2.0 | 7.0 | 0.01 | 2.63 | 2.51 | 94 | 1011.0 |
| 20260507143216 | 66 | 50 | 3.0 | 5.0 | 0.00 | 2.62 | 2.50 | 95 | 1011.0 |
| 20260507142216 | 66 | 12 | 3.0 | 10.0 | 0.02 | 2.62 | 2.50 | 95 | 1011.0 |
| 20260507141216 | 66 | 33 | 9.0 | 10.0 | 0.11 | 2.62 | 2.50 | 95 | 1011.1 |
| 20260507140216 | 67 | 5 | 7.0 | 8.0 | 0.18 | 2.62 | 2.50 | 95 | 1010.7 |
| 20260507133216 | 68 | 42 | 9.0 | 15.0 | 0.42 | 2.62 | 2.50 | 96 | 1010.7 |
| 20260507132215 | 68 | 231 | 4.0 | 9.0 | 0.48 | 2.60 | 2.48 | 96 | 1010.2 |
| 20260507131215 | 68 | 257 | 3.0 | 8.0 | 0.54 | 2.51 | 2.39 | 96 | 1010.3 |
| 20260507130215 | 68 | 246 | 4.0 | 10.0 | 0.84 | 2.44 | 2.32 | 96 | 1010.4 |
| 20260507125215 | 68 | 281 | 3.0 | 9.0 | 0.82 | 2.28 | 2.16 | 96 | 1010.5 |
| 20260507124215 | 68 | 286 | 4.0 | 5.0 | 1.17 | 2.24 | 2.12 | 96 | 1009.9 |
| 20260507123215 | 68 | 263 | 4.0 | 4.0 | 1.55 | 2.20 | 2.08 | 96 | 1009.8 |
| 20260507121214 | 68 | 243 | 4.0 | 10.0 | 1.41 | 1.97 | 1.85 | 95 | 1009.9 |
| 20260507120215 | 68 | 265 | 6.0 | 9.0 | 1.04 | 1.60 | 1.48 | 95 | 1010.3 |
| 20260507115215 | 68 | 257 | 7.0 | 10.0 | 0.90 | 1.46 | 1.34 | 95 | 1009.5 |
| 20260507114214 | 68 | 263 | 7.0 | 15.0 | 0.51 | 1.07 | 0.95 | 95 | 1009.7 |
| 20260507113214 | 67 | 240 | 5.0 | 9.0 | 0.09 | 0.65 | 0.53 | 95 | 1009.5 |
| 20260507112214 | 67 | 192 | 2.0 | 5.0 | 0.00 | 0.56 | 0.44 | 95 | 1009.2 |
| 20260507110214 | 67 | 214 | 3.0 | 6.0 | 0.01 | 0.56 | 0.44 | 95 | 1009.4 |
| 20260507105214 | 67 | 216 | 5.0 | 10.0 | 0.01 | 0.56 | 0.44 | 95 | 1009.3 |